Weather History for KASX - December, 2012

Change the Weather History Date:

Thursday, December 6, 2012

  Actual Average Record
Temperature  
Mean Temperature 35 °F -  
Max Temperature 44 °F 30 °F 45 °F (1988)
Min Temperature 26 °F 12 °F -13 °F (1955)
Degree Days  
Heating Degree Days 30    
Moisture  
Dew Point 26 °F    
Average Humidity 66    
Maximum Humidity 79    
Minimum Humidity 46    
Precipitation  
Precipitation 0.00 in - - ()
Sea Level Pressure  
Sea Level Pressure 29.83 in    
Wind  
Wind Speed 13 mph (WSW)    
Max Wind Speed 18 mph    
Max Gust Speed 26 mph    
Visibility 10 miles    
Events      
Averages and records for this station are not official NWS values.
T = Trace of Precipitation, MM = Missing Value Source: NWS Daily Summary

Daily Weather History Graph

Daily Weather History Graph

Search for Another Location

Airport or City:

Trip Planner

Search our weather history database for the weather conditions in past years. The results will help you decide how hot, cold, wet, or windy it might be!

Date:

Astronomy

Dec. 06, 2012 Rise Set
Actual Time 7:33 AM CST 4:16 PM CST
Civil Twilight 6:58 AM CST 4:51 PM CST
Nautical Twilight 6:20 AM CST 5:29 PM CST
Astronomical Twilight 5:43 AM CST 6:05 PM CST
Moon No Moon Rise 12:05 PM CST (12/6)
Length of Visible Light 9h 52m
Length of Day
8h 43m
Waning Gibbous, 49% of the Moon is Illuminated
Dec 6
Waning Gibbous
Dec 13
New
Dec 19
First Quarter
Dec 28
Full
Jan 4
Last Quarter

Hourly Weather History & Observations

Time (CST) Temp. Windchill Dew Point Humidity Pressure Visibility Wind Dir Wind Speed Gust Speed Precip Events Conditions
12:53 AM 37.0 °F 29.3 °F 19.0 °F 48% 29.90 in 10.0 mi South 11.5 mph 18.4 mph N/A   Overcast
1:53 AM 39.0 °F 31.0 °F 19.9 °F 46% 29.88 in 10.0 mi SSW 13.8 mph 23.0 mph N/A   Overcast
2:53 AM 39.9 °F 32.5 °F 21.0 °F 47% 29.86 in 10.0 mi SSW 12.7 mph 21.9 mph N/A   Overcast
3:53 AM 39.0 °F 30.6 °F 21.9 °F 50% 29.83 in 10.0 mi SSW 15.0 mph 20.7 mph N/A   Overcast
4:53 AM 39.9 °F 31.8 °F 24.1 °F 53% 29.82 in 10.0 mi SSW 15.0 mph 25.3 mph N/A   Overcast
5:53 AM 39.0 °F 30.3 °F 27.0 °F 62% 29.79 in 10.0 mi SSW 16.1 mph 26.5 mph N/A   Overcast
6:53 AM 37.0 °F 27.7 °F 30.0 °F 76% 29.76 in 10.0 mi SSW 16.1 mph 24.2 mph 0.00 in   Mostly Cloudy
7:53 AM 37.0 °F 28.1 °F 30.9 °F 79% 29.76 in 10.0 mi SSW 15.0 mph 23.0 mph N/A   Scattered Clouds
8:53 AM 39.0 °F 31.4 °F 32.0 °F 76% 29.76 in 10.0 mi SSW 12.7 mph 21.9 mph N/A   Clear
9:53 AM 41.0 °F 32.2 °F 33.1 °F 73% 29.75 in 10.0 mi SSW 18.4 mph 25.3 mph N/A   Overcast
10:53 AM 44.1 °F 39.0 °F 35.1 °F 71% 29.74 in 10.0 mi SW 9.2 mph - N/A   Overcast
11:53 AM 44.1 °F 37.4 °F 34.0 °F 68% 29.73 in 10.0 mi WSW 13.8 mph 21.9 mph N/A   Overcast
12:53 PM 43.0 °F 35.1 °F 32.0 °F 65% 29.74 in 10.0 mi WNW 17.3 mph 24.2 mph N/A   Overcast
1:34 PM 42.8 °F 35.1 °F 28.4 °F 57% 29.72 in 10.0 mi West 16.1 mph 25.3 mph N/A   Scattered Clouds
1:53 PM 42.1 °F 35.7 °F 28.9 °F 60% 29.75 in 10.0 mi WSW 11.5 mph 19.6 mph N/A   Mostly Cloudy
2:53 PM 41.0 °F 33.9 °F 28.0 °F 60% 29.78 in 10.0 mi WNW 12.7 mph 18.4 mph N/A   Overcast
3:53 PM 37.9 °F 30.9 °F 27.0 °F 65% 29.81 in 10.0 mi West 10.4 mph 17.3 mph N/A   Mostly Cloudy
4:51 PM 37.4 °F 27.8 °F 26.6 °F 65% 29.81 in 10.0 mi West 17.3 mph 24.2 mph N/A   Overcast
4:53 PM 37.0 °F 28.9 °F 27.0 °F 67% 29.84 in 10.0 mi West 12.7 mph 24.2 mph N/A   Overcast
5:53 PM 35.1 °F 25.2 °F 26.1 °F 70% 29.86 in 10.0 mi WNW 16.1 mph 24.2 mph N/A   Overcast
6:53 PM 32.0 °F 24.2 °F 24.1 °F 73% 29.90 in 10.0 mi West 9.2 mph - N/A   Overcast
7:53 PM 30.9 °F 22.8 °F 23.0 °F 72% 29.91 in 10.0 mi West 9.2 mph - N/A   Overcast
8:17 PM 30.2 °F 21.3 °F 21.2 °F 69% 29.89 in 10.0 mi West 10.4 mph 23.0 mph N/A   Scattered Clouds
8:53 PM 28.9 °F 19.8 °F 21.0 °F 72% 29.94 in 10.0 mi West 10.4 mph - N/A   Clear
9:53 PM 28.0 °F 20.8 °F 19.9 °F 72% 29.94 in 10.0 mi West 6.9 mph - N/A   Clear
10:53 PM 26.1 °F 18.4 °F 19.9 °F 78% 29.96 in 10.0 mi West 6.9 mph - N/A   Partly Cloudy
11:15 PM 26.6 °F 19.1 °F 19.4 °F 74% 29.93 in 10.0 mi West 6.9 mph - N/A   Mostly Cloudy
11:53 PM 27.0 °F 18.0 °F 19.9 °F 75% 29.96 in 10.0 mi West 9.2 mph - N/A   Overcast